TimeCST,TemperatureF,Dew PointF,Humidity,Sea Level PressureIn,VisibilityMPH,Wind Direction,Wind SpeedMPH,Gust SpeedMPH,PrecipitationIn,Events,Conditions,WindDirDegrees,DateUTC
12:00 AM,16,13,85,29.83,15,WSW,10.4,,,Snow,Low Drifting Snow,250,2013-01-04 06:00:00
12:00 AM,15.8,14.0,93,29.83,15.0,WSW,10.4,-,N/A,Snow,Low Drifting Snow,250,2013-01-04 06:00:00
1:00 AM,17.6,14.0,86,29.84,15.0,West,8.1,-,N/A,,Clear,260,2013-01-04 07:00:00
2:00 AM,15.8,14.0,93,29.85,15.0,West,9.2,-,N/A,,Clear,260,2013-01-04 08:00:00
3:00 AM,14.0,12.2,93,29.86,15.0,West,9.2,-,N/A,,Clear,260,2013-01-04 09:00:00
4:00 AM,14.0,12.2,93,29.87,15.0,West,9.2,-,N/A,,Clear,260,2013-01-04 10:00:00
5:00 AM,14.0,12.2,93,29.88,15.0,West,6.9,-,N/A,,Clear,270,2013-01-04 11:00:00
6:00 AM,16,13,84,29.89,15,West,9.2,,,,,270,2013-01-04 12:00:00
6:00 AM,15.8,14.0,93,29.89,15.0,West,9.2,-,N/A,,Clear,270,2013-01-04 12:00:00
7:00 AM,15.8,14.0,93,29.91,15.0,WNW,9.2,-,N/A,,Clear,290,2013-01-04 13:00:00
7:49 AM,-9999,-9999,N/A,-9999,15.0,WNW,8.1,-,N/A,,Mostly Cloudy,290,2013-01-04 13:49:00
8:00 AM,17.6,14.0,86,29.92,15.0,WNW,8.1,-,N/A,,Mostly Cloudy,290,2013-01-04 14:00:00
9:00 AM,19.4,15.8,86,29.94,15.0,West,6.9,-,N/A,,Mostly Cloudy,280,2013-01-04 15:00:00
10:00 AM,21.2,17.6,86,29.97,15.0,NW,11.5,18.4,N/A,,Mostly Cloudy,320,2013-01-04 16:00:00
11:00 AM,23.0,19.4,86,29.99,15.0,NW,11.5,-,N/A,,Mostly Cloudy,310,2013-01-04 17:00:00
12:00 PM,24,18,70,29.99,15,NW,15.0,,,,Mostly Cloudy,320,2013-01-04 18:00:00
12:00 PM,24.8,17.6,74,29.99,15.0,NW,15.0,24.2,N/A,,Mostly Cloudy,320,2013-01-04 18:00:00
1:00 PM,24.8,17.6,74,30.00,15.0,NNW,9.2,-,N/A,,Mostly Cloudy,330,2013-01-04 19:00:00
2:00 PM,26.6,15.8,64,30.02,15.0,NW,9.2,-,N/A,,Scattered Clouds,310,2013-01-04 20:00:00
3:00 PM,24.8,14.0,64,30.05,15.0,NW,10.4,-,N/A,,Scattered Clouds,320,2013-01-04 21:00:00
4:00 PM,24.8,12.2,59,30.07,15.0,NW,4.6,-,N/A,,Mostly Cloudy,310,2013-01-04 22:00:00
5:00 PM,23.0,10.4,59,30.09,15.0,NW,5.8,-,N/A,,Mostly Cloudy,310,2013-01-04 23:00:00
6:00 PM,19,8,50,30.12,15,NW,5.8,,,,Partly Cloudy,310,2013-01-05 00:00:00
6:00 PM,19.4,8.6,63,30.12,15.0,NW,5.8,-,N/A,,Mostly Cloudy,320,2013-01-05 00:00:00
7:00 PM,17.6,8.6,68,30.12,15.0,North,4.6,-,N/A,,Mostly Cloudy,350,2013-01-05 01:00:00
8:00 PM,15.8,6.8,68,30.13,15.0,North,4.6,-,N/A,,Scattered Clouds,360,2013-01-05 02:00:00
9:00 PM,15.8,8.6,73,30.12,15.0,NNE,4.6,-,N/A,,Partly Cloudy,30,2013-01-05 03:00:00
10:00 PM,12.2,8.6,85,30.13,15.0,ENE,9.2,-,N/A,,Scattered Clouds,70,2013-01-05 04:00:00
11:00 PM,10.4,6.8,85,30.13,15.0,ENE,8.1,-,N/A,,Scattered Clouds,70,2013-01-05 05:00:00